Simultaneous Nadir Overpasses (SNOs) Predictions

Prediction of SNOs between GOES-16 and NOAA-21 Satellite Orbit:

Table of predicted SNOs for the next 14.0 days since TLE Epoch: 12/21/2024
Index Date Time (GOES-16) GOES-16 Lat,Lon NOAA-21 Lat,Lon Distance(km) Time Diff (sec)
1 12/21/2024 06:27:43 -0.01, -75.18 -0.03, -75.17 2.76 80
2 12/23/2024 18:28:11 0.01, -75.21 -0.14, -75.93 81.41 80
3 12/24/2024 18:12:05 0.00, -75.22 0.86, -71.39 436.79 80
4 12/26/2024 06:33:50 0.00, -75.23 0.35, -76.65 162.72 80
5 12/27/2024 06:12:25 0.01, -75.23 -0.71, -72.12 355.41 80
6 12/28/2024 18:34:18 -0.01, -75.26 -0.48, -77.41 245.09 80
7 12/29/2024 18:18:11 -0.00, -75.28 0.52, -72.88 273.23 80
8 12/31/2024 06:39:58 0.00, -75.29 0.62, -78.15 325.68 80
9 01/01/2025 06:18:31 -0.00, -75.30 -0.39, -73.61 192.62 80
10 01/02/2025 18:40:25 0.00, -75.33 -0.78, -78.91 407.48 80
11 01/03/2025 18:24:18 0.00, -75.35 0.24, -74.37 111.59 80
